Powrót do katalogu

CZ-6A DEB

AktywnySSO
NORAD 55528·DEBRIS·🇨🇳 China

Wystrzelony Nov 11, 2022 z Taiyuan Satellite Launch Center

Loading…

Następne Przeloty (najbliższe 24 godziny)

TLE

ŚwieżeSource: Space-Track

Epoka: Sep 14, 2026, 14:36 UTC

1 55528U 22151YA  26257.60885544  .00002456  00000-0  59185-3 0  9996
2 55528  98.6256 313.2822 0068411 339.7527  20.0957 14.52790187197015

Śledź CZ-6A DEB w czasie rzeczywistym z AllMySat

Download on the App Store